Regional Weather Roundup
Issued by NWS

Home | Current Version | Previous Version | Graphics & Text | Print | Product List | Glossary Off
Versions: 1 2 3 4 5 6 7 8 9 10 11 12 13 14 15 16 17 18 19 20 21 22 23 24 25 26 27 28 29 30 31 32 33 34 35 36 37 38 39 40 41 42 43 44 45 46 47 48 49 50

000
ASUS43 KMPX 071201
RWRMN
WEATHER ROUNDUP FOR MINNESOTA
NATIONAL WEATHER SERVICE TWIN CITIES/CHANHASSEN MN
600 AM CST SUN FEB 07 2016


NOTE: "FAIR" INDICATES FEW OR NO CLOUDS BELOW 12,000 FEET WITH NO
SIGNIFICANT WEATHER AND/OR OBSTRUCTIONS TO VISIBILITY. N/A MEANS
CURRENT SKY AND/OR WEATHER CONDITIONS ARE NOT AVAILABLE.

MNZ060>063-068>070-071300-
   Twin Cities Metro

CITY           SKY/WX    TMP DP  RH WIND       PRES   REMARKS
TWIN CITIES    MOCLDY    34  28  79 SW14      29.63F WCI  25
6HR MIN TEMP:  31; 6HR MAX TEMP:  35; 6HR PCP: TRACE;

ST PAUL        CLOUDY    35  29  78 SW9       29.63F WCI  28
CRYSTAL        MOCLDY    36  29  75 SW10      29.61S
BLAINE         PTCLDY    36  30  80 SW9       29.60F
LAKEVILLE      CLEAR     34  28  80 W14G23    29.64S WCI  24
EDEN PRAIRIE   MOCLDY    36  28  73 W12       29.63S
6HR MIN TEMP:  30; 6HR MAX TEMP:  36;

SOUTH ST PAUL  MOCLDY    36  30  78 W12G17    29.62F
LAKE ELMO      MOCLDY    32  28  86 S7        29.62F WCI  26
$$
MNZ001>005-007-008-013>017-022>024-027-028-071300-
   Northwest Minnesota

CITY           SKY/WX    TMP DP  RH WIND       PRES   REMARKS
BEMIDJI        LGT RAIN  33  32  97 W16       29.44R WCI  22
HALLOCK        LGT SNOW  34  32  93 NW10      29.47R WCI  26
ROSEAU         CLOUDY    32  27  80 W16G23    29.39S WCI  21
WARROAD        CLOUDY    32  28  86 W14       29.37S WCI  22
THIEF RVR FALL CLOUDY    34  28  80 W20G25    29.48R WCI  22
CROOKSTON      LGT SNOW  34  32  93 NW20      29.51S WCI  22
FOSSTON        LGT SNOW  30  30 100 W17       29.49R WCI  18
DETROIT LAKES  LGT SNOW  32  32 100 NW20G28   29.55R WCI  20
MOORHEAD       CLOUDY    36  28  75 W23G29    29.59R
PARK RAPIDS    LGT SNOW  34  32  92 W21G29    29.48R FOG     WCI  22
$$
MNZ006-009>011-018-025>026-071300-
   North Central Minnesota

CITY           SKY/WX    TMP DP  RH WIND       PRES   REMARKS
BAUDETTE       CLOUDY    35  29  78 W12       29.35F WCI  27
FLAG ISLAND    CLOUDY    32  30  93 W8        29.35R WCI  25
INTL FALLS     CLOUDY    34  32  92 S5        29.37S WCI  30
6HR MIN TEMP:  32; 6HR MAX TEMP:  34;

WASKISH        LGT RAIN  34  32  93 W15       29.40S WCI  24
LONGVILLE      FLURRIES  34  32  93 W8G17     29.45S WCI  27
GRAND RAPIDS   CLOUDY    34  30  86 SW7       29.43S WCI  28
CRANE LAKE     CLOUDY    32  30  93 S3        29.42F
ORR            LGT SNOW  32  30  93 CALM      29.37F
COOK           LGT SNOW  32  32 100 S3        29.41F
WALKER         LGT SNOW  32  31  96 W12G18    29.45R WCI  23
$$
MNZ012-019>021-037-071300-
   Northeast Minnesota

CITY           SKY/WX    TMP DP  RH WIND       PRES   REMARKS
DULUTH         FLURRIES  32  29  88 SW12      29.45F WCI  23
6HR MIN TEMP:  30; 6HR MAX TEMP:  32; 6HR PCP:  0.01;

ELY            CLOUDY    32  30  93 S6        29.43S WCI  26
HIBBING        LGT SNOW  30  29  96 S5        29.41F FOG     WCI  25
EVELETH        LGT SNOW  32  32 100 S6        29.43F WCI  26
DULUTH HARBOR  CLOUDY    36  30  80 SW10      29.49F
TWO HARBORS    CLOUDY    34  28  80 SW6       29.46F WCI  29
SILVER BAY     CLOUDY    32  30  93 S6        29.46F WCI  26
GRAND MARAIS     N/A     35  32  88 S10       29.51F WCI  27
G MARAIS ARPRT MIX PCPN  28  27  93 S8        29.46F VSB 1/4 WCI  20
$$
MNZ029>031-032-039>041-046>048-054>057-064-071300-
   West Central Minnesota

CITY           SKY/WX    TMP DP  RH WIND       PRES   REMARKS
FERGUS FALLS   CLOUDY    36  30  80 W26       29.63R
WHEATON        CLEAR     37  28  70 W21G30    29.69S
MORRIS         PTCLDY    36  27  69 W23       29.65R
ALEXANDRIA     FLURRIES  35  27  72 W23G36    29.59S WCI  23
ELBOW LAKE     CLOUDY    35  28  76 NW22G31   29.63R HAZE    WCI  23
WADENA         LGT SNOW  32  30  93 W18G28    29.53R WCI  20
GLENWOOD       PTCLDY    36  27  69 W20G32    29.62R
APPLETON       PTCLDY    36  27  69 W17G23    29.69S
BENSON         MOCLDY    36  27  69 NW15      29.68R
ORTONVILLE     MOCLDY    36  25  64 W18G26    29.70S
MADISON        PTCLDY    36  27  69 W17       29.73S
WILLMAR        MOCLDY    37  30  75 W18       29.68R
$$
MNZ033>034-036-042>043-049>051-058-059-071300-
   Central Minnesota

CITY           SKY/WX    TMP DP  RH WIND       PRES   REMARKS
ST CLOUD       CLOUDY    36  30  79 W20G33    29.58S
6HR MIN TEMP:  32; 6HR MAX TEMP:  37; 6HR PCP:  0.02;

SAUK CENTRE    FAIR      34  29  80 W23G33    29.60R WCI  22
PAYNESVILLE    MOCLDY    36  29  76 W23G31    29.63R
AITKIN         MIX PCPN  37  30  75 W12       29.46S
PINE RIVER     LGT RAIN  34  32  93 W8G18     29.51S WCI  27
BRAINERD       CLOUDY    34  31  88 W17       29.50S WCI  23
STAPLES        RAIN      32  30  93 W20G29    29.52S WCI  20
LONG PRAIRIE   CLOUDY    34  30  86 W18G28    29.57S WCI  23
LITTLE FALLS   CLOUDY    36  30  80 W14G21    29.56R
LITCHFIELD     CLOUDY    37  30  75 W17G24    29.64S
BUFFALO        CLOUDY    37  30  76 W13G22    29.63R
MAPLE LAKE     CLOUDY    38  32  79 W15G23    29.62R
$$
MNZ037-044-045-052-053-071300-
   East Central Minnesota

CITY           SKY/WX    TMP DP  RH WIND       PRES   REMARKS
PRINCETON      CLOUDY    39  32  75 SW10G22   29.57S
MORA           CLOUDY    34  30  86 CALM      29.54F
CAMBRIDGE      CLOUDY    37  28  70 CALM      29.55S
RUSH CITY      CLOUDY    33  30  88 SW9       29.55F WCI  26
MOOSE LAKE     CLOUDY    34  32  93 S8        29.47F WCI  27
HINCKLEY       CLOUDY    34  32  93 SW10      29.52F WCI  26
CLOQUET        CLOUDY    34  30  86 S8        29.46F WCI  27
MCGREGOR       CLOUDY    36  32  87 SW7       29.47S
$$
MNZ071>073-080-081-089-090-097-098-071300-
   Southwest Minnesota

CITY           SKY/WX    TMP DP  RH WIND       PRES   REMARKS
MONTEVIDEO     PTCLDY    37  27  65 NW17G26   29.72S
GRANITE FALLS  PTCLDY    37  29  73 W22G28    29.73F
CANBY          PTCLDY    38  28  67 NW29G37   29.74F
MARSHALL       CLEAR     36  24  62 W26       29.73F
REDWOOD FALLS  PTCLDY    36  26  67 W26G32    29.70F
OLIVIA         PTCLDY    36  28  75 W24G30    29.68S
PIPESTONE      CLEAR     36  19  51 NW17G23   29.79S
WINDOM         CLEAR     34  27  75 W18G28    29.75S WCI  23
WORTHINGTON    CLEAR     34  23  64 W22       29.80R WCI  22
JACKSON        CLEAR     34  25  69 W22G29    29.76S WCI  22
TRACY          CLEAR     36  26  68 W18G26    29.75S
SLAYTON        CLEAR     32  26  79 W20       29.78S WCI  20
$$
MNZ065>067-074>077-082>085-091>093-071300-
   South Central Minnesota

CITY           SKY/WX    TMP DP  RH WIND       PRES   REMARKS
MANKATO        MOCLDY    37  27  65 W20G28    29.70S
NEW ULM        MOCLDY    36  27  69 W22G28    29.70S
ST JAMES       CLEAR     36  28  75 W20       29.74S
FAIRMONT       CLEAR     36  25  64 W23       29.74S
GLENCOE        CLOUDY    37  32  81 W16G23    29.65S
FARIBAULT      CLEAR     36  27  69 SW12      29.68S
OWATONNA       CLEAR     30  25  80 SW13      29.69S WCI  20
WASECA         CLEAR     30  25  80 SW12      29.72S WCI  21
ALBERT LEA     CLEAR     34  27  75 W15       29.71F WCI  24
$$
MNZ078>079-086>088-094>096-071300-
   Southeast Minnesota

CITY           SKY/WX    TMP DP  RH WIND       PRES   REMARKS
ROCHESTER      CLEAR     30  25  81 W13       29.68F WCI  20
6HR MIN TEMP:  30; 6HR MAX TEMP:  32;

RED WING       CLEAR     30  27  86 W7        29.65S WCI  23
STANTON        CLEAR     32  27  81 SW8       29.65S WCI  25
DODGE CENTER   PTCLDY    27  25  93 W13       29.68S WCI  16
WINONA         PTCLDY    34  28  80 W7        29.69F WCI  28
AUSTIN         CLEAR     34  27  75 W9        29.70F WCI  26
PRESTON        CLEAR     31  26  81 W14       29.69F WCI  21
$$
ABBREVIATIONS USED IN REMARKS
   TC - TEMPERATURES IN CELSIUS
  WCI - WIND CHILL INDEX
   HX - HEAT INDEX
  VSB - VISIBILITY
$$



USA.gov is the U.S. government's official web portal to all federal, state and local government web resources and services.